SCP
0 0 0 0 0 0 0 0 0 0 0 0 0 0 0 0 0 0 0 0 0 0 0 0 0 0 0 0 0 0 0 0 0 0 0 0 0 0 0 0 0 0 0 0 0 0 0 0 0 0 0 0 0 0
0 0 0 0 0 0 0 0 0 0 0 0 0 0 0 0 0 0 0 0 0 0 0 0 0 0 0 -0 0 0 0 0 0 0 0 0 0 0 0 0 0 0 0 0 0 0 0 0 0 0 0 0 0 0
0 0 0 0 0 0 0 0 0 0 0 0 0 0 0 0 0 0 0 0 0 0 0 0 0 0 0 0 0 0 0 0 0 0 0 0 0 0 0 0 0 0 0 0 0 0 0 0 0 0 0 0 0 0
0 0 0 0 0 0 0 0 0 0 0 -0 0 0 0 0 -0 0 0 0 0 0 0 0 0 0 0 0 0 0 0 0 0 0 0 0 0 0 0 0 0 0 0 0 0 0 0 0 0 0 0 0 0 0
0 0 0 0 0 0 0 0 0 0 0 -0 0 0 0 0 0 0 0 0 0 0 0 0 0 0 0 0 0 0 0 0 0 0 0 0 0 0 0 0 0 0 0 0 0 0 0 0 -0 -0 0 0 0 0
0 0 0 0 0 0 0 -0 0 0 0 -0 -0 -0 0 0 0 0 -0 0 0 0 0 0 0 0 0 0 0 0 0 0 0 0 0 0 0 0 0 0 0 0 0 0 0 0 0 0 0 0 0 0 0 0
0 0 0 0 0 0 0 0 0 -0 -0 -0 -0 0 0 0 -0 0 0 0 0 0 0 0 0 0 0 0 0 0 0 0 0 0 0 0 0 0 0 0 0 0 0 0 0 0 0 0 0 0 0 0 0 0
0 0 0 0 0 0 0 -0 -0 -0 -0 0 -0 0 0 0 0 0 0 0 0 0 0 0 0 0 0 0 0 0 0 0 0 0 0 0 0 0 0 0 0 0 0 0 0 0 0 0 0 0 0 0 0 0
0 0 0 0 -0 -0 -0 -0 -0 0 -0 -0 -0 -0 -0 -0 -0 0 0 0 0 0 0 0 0 0 0 0 0 0 0 0 0 0 0 0 0 0 0 0 0 0 0 0 0 0 0 0 0 0 0 0 0 0
0 0 -0 -0 -0 -0 -0 -0 -0 -0 -0 -0 -0 -0 0 0 0 0 0 0 0 0 0 0 0 0 0 0 0 0 0 0 0 0 0 0 0 0 0 0 0 0 0 0 0 0 0 0 0 0 0 0 0 0
0 -0 -0 -0 -0 -0 -0 -0 -0 -0 -0 -0 0 0 0 0 0 0 0 0 0 0 0 0 0 0 0 0 0 0 0 0 0 0 0 0 0 0 0 0 0 0 0 0 0 0 0 0 0 0 0 0 0 0
-0 -0 -0 -0 -0 -0 -0 -0 -0 -0 0 0 -0 0 0 0 0 0 0 0 0 0 0 0 0 0 0 0 0 0 0 0 0 0 0 0 0 0 -0 -0 0 0 0 0 0 0 0 0 0 0 0 0 0 0
-0 -0 -0 -0 -0 -0 -0 -0 0 -0 0 0 0 0 0 0 0 0 0 0 0 -0 0 0 0 0 0 0 0 0 0 0 0 0 0 0 0 0 -0 -0 -0 -0 -0 -0 -0 -0 -0 -0 0 0 0 0 0 0
-0 -0 -0 -0 -0 -0 -0 -0 0 -0 0 0 0 0 0 0 0 0 0 0 0 0 0 -0 0 0 0 0 0 0 0 0 0 0 0 0 -0 0 -0 0 -0 -0 -0 -0 -0 -0 -0 -0 -0 0 0 -0 -0 0
-0 -0 -0 -0 -0 -0 0 0 -0 0 0 0 0 0 0 0 0 -0 0 -0 0 0 0 0 0 0 0 0 0 0 0 0 0 0 0 -0 -0 -0 -0 -0 -0 -0 -0 -0 -0 0 0 -0 -0 -0 -0 0 -0 0
-0 -0 -0 -0 -0 -0 0 0 0 0 0 0 0 0 0 -0 -0 -0 -0 -0 -0 -0 0 0 0 0 0 0 -0 0 0 0 0 0 0 0 0 -0 0 0 -0 -0 -0 -0 -0 -0 -0 0 -0 0 -0 -0 -0 -0
-0 -0 -0 -0 -0 -0 -0 0 0 0 0 0 0 0 0 -0 0 -0 0 0 -0 0 -0 0 0 0 0 0 0 0 0 0 0 -0 -0 0 -0 -0 -0 0 -0 -0 -0 -0 -0 -0 -0 -0 -0 -0 -0 -0 -0 -0
-0 -0 -0 -0 0 0 0 0 0 0 0 0 0 0 -0 -0 -0 0 0 0 0 -0 -0 -0 0 -0 -0 0 -0 0 0 0 -0 -0 0 0 -0 0 0 -0 -0 -0 -0 -0 -0 -0 -0 -0 -0 -0 -0 0 -0 -0
-0 0 -0 -0 0 0 0 0 0 0 0 0 0 0 0 0 0 0 0 -0 0 0 0 0 0 0 0 0 0 -0 0 -0 -0 0 0 0 0 0 0 0 -0 -0 -0 -0 -0 -0 -0 -0 -0 -0 0 0 0 0
-0 -0 -0 0 0 0 0 0 -0 0 0 0 0 0 0 0 0 0 0 0 -0 -0 -0 0 0 0 0 0 -0 -0 0 0 0 0 0 0 0 0 0 0 0 0 0 0 0 -0 -0 0 0 -0 -0 0 0 0
0 0 -0 0 -0 0 -0 0 0 0 0 0 0 0 0 0 0 0 0 -0 -0 -0 0 0 -0 0 0 0 -0 -0 -0 0 0 0 0 0 0 0 0 -0 -0 -0 0 0 0 0 0 0 0 0 0 0 0 0
0 0 0 0 0 -0 -0 0 0 0 0 0 0 0 0 0 0 -0 -0 0 -0 -0 0 0 0 0 0 0 0 -0 -0 0 0 0 0 0 0 0 0 -0 0 -0 0 0 0 0 0 0 0 0 0 0 0 0
0 0 0 0 -0 -0 -0 0 0 0 0 0 0 0 0 0 0 -0 -0 -0 -0 -0 0 0 0 0 0 0 0 0 0 0 0 -0 -0 -0 0 0 0 0 0 0 0 0 0 0 0 0 0 0 0 0 0 0
0 0 0 0 -0 -0 0 0 0 0 0 0 0 0 0 0 -0 -0 -0 -0 0 -0 0 0 0 0 0 0 0 0 0 -0 0 0 0 -0 -0 0 0 0 0 0 0 0 0 0 0 0 0 0 0 0 0 0
0 0 0 0 0 -0 0 0 0 0 0 0 0 -0 -0 -0 -0 -0 -0 0 -0 -0 0 0 -0 0 0 0 0 0 0 -0 -0 -0 0 -0 -0 -0 -0 0 0 0 0 0 0 0 0 0 0 0 0 0 0 0
0 0 0 0 0 0 0 0 0 0 0 0 0 -0 -0 -0 -0 -0 0 0 0 0 0 0 0 0 0 0 0 -0 -0 -0 -0 -0 0 0 -0 -0 -0 -0 -0 0 0 0 0 0 0 0 0 0 0 0 0 0
0 0 0 0 0 0 0 0 0 0 0 0 0 0 0 -0 -0 -0 0 0 0 0 0 0 0 0 0 0 -0 -0 -0 -0 -0 -0 -0 -0 -0 -0 -0 0 0 0 0 0 0 0 0 0 0 0 0 0 0 0
0 0 0 0 0 0 0 0 0 0 0 0 0 0 -0 -0 0 0 0 0 0 0 0 0 0 0 0 0 -0 -0 -0 -0 -0 -0 -0 -0 -0 -0 0 0 0 0 0 0 0 0 0 0 0 0 0 0 0 0
0 0 0 0 0 0 0 0 -0 -0 -0 0 0 0 0 0 0 0 0 0 0 0 0 0 0 0 0 -0 -0 -0 0 -0 -0 -0 -0 0 0 0 0 0 0 0 0 0 0 0 0 0 0 0 0 0 0 0
0 0 0 0 0 -0 -0 0 -0 -0 -0 0 0 0 0 0 0 0 0 0 0 0 0 0 0 0 0 -0 0 -0 0 0 0 0 0 0 0 0 0 0 0 0 0 0 0 0 0 0 0 0 0 0 0 0
-0 -0 0 0 0 0 0 0 0 0 0 0 0 0 0 0 0 0 0 0 0 0 0 0 0 0 0 0 0 0 0 0 0 0 0 0 0 0 0 0 0 0 0 0 0 0 0 0 0 0 0 0 0 0
0 0 0 0 0 0 0 -0 -0 -0 0 0 0 0 0 0 0 0 0 0 0 0 0 0 0 0 0 0 0 0 0 0 0 0 0 0 0 0 0 0 0 0 0 0 0 0 0 0 0 0 0 0 0 0
0 0 0 0 0 -0 -0 0 0 0 0 0 -0 0 0 0 0 0 0 0 0 0 0 0 0 0 0 0 0 0 0 0 0 0 0 0 0 0 0 0 0 0 0 0 0 0 0 0 0 0 0 0 0 0
Wind_Speed_500mb
47 45 40 39 44 43 38 38 37 37 36 30 27 23 22 19 22 16 18 14 21 9 34 30 9 4 2 4 5 4 2 7 5 3 4 3 4 5 4 6 8 10 10 6 6 7 13 10 15 4 5 17 20 17
49 45 39 35 39 40 38 38 37 38 39 28 20 21 21 21 19 25 20 14 15 13 16 21 27 23 32 22 11 6 11 5 3 5 1 2 4 5 4 3 5 8 10 8 13 10 6 5 17 24 23 19 14 19
47 46 39 35 35 36 36 37 36 34 34 33 27 28 28 23 22 20 23 21 15 17 30 19 5 5 10 38 31 10 6 8 6 8 7 2 4 1 4 6 1 2 6 6 3 4 7 6 10 18 17 8 19 14
41 45 43 34 31 33 33 35 35 33 32 32 31 30 23 23 21 23 26 25 15 2 4 10 5 10 5 10 22 27 13 15 17 11 5 4 3 8 6 5 1 10 12 9 6 4 14 14 11 17 19 20 16 12
40 42 42 42 34 30 31 32 34 34 32 29 28 28 23 20 20 16 24 34 16 18 4 16 21 11 23 13 18 26 25 16 9 6 4 5 8 3 7 4 7 12 11 6 9 16 8 25 20 15 26 22 14 8
47 38 39 39 38 33 29 32 32 32 31 27 24 23 20 16 19 11 6 12 23 25 3 5 8 2 31 22 21 22 18 11 9 8 5 8 15 1 5 5 6 10 16 18 8 11 6 15 22 29 29 23 15 13
46 36 36 40 39 33 30 33 34 31 30 25 23 20 17 16 11 10 5 11 7 27 4 7 6 2 34 30 19 20 17 5 8 8 7 7 5 14 3 6 9 12 13 12 17 14 12 17 34 32 30 24 16 18
37 32 34 35 37 31 24 26 30 29 26 22 17 16 18 17 15 13 13 3 17 10 4 3 6 9 29 10 8 9 8 6 7 6 5 6 6 12 7 18 24 6 18 13 13 14 13 26 42 37 27 17 16 21
29 31 34 34 34 29 23 26 27 25 23 18 13 18 14 4 5 6 16 17 19 5 3 4 3 4 22 7 11 9 10 3 6 4 6 6 5 9 13 19 21 19 7 15 9 16 36 43 40 34 24 20 19 19
30 31 30 34 34 33 16 22 24 25 15 10 13 4 3 2 2 16 14 8 9 5 5 4 6 5 15 9 6 11 9 4 4 9 8 6 8 32 24 23 27 22 18 24 20 23 29 39 38 32 26 20 20 19
32 31 34 34 30 26 15 18 22 14 8 8 3 3 1 28 14 1 2 2 5 4 10 12 14 4 7 6 4 7 4 2 4 5 7 4 6 10 29 27 27 18 21 20 23 22 18 30 34 32 27 23 19 17
28 31 34 34 27 20 12 15 15 4 6 3 6 3 9 4 3 2 4 6 8 6 12 9 13 18 7 5 7 5 2 3 7 13 6 5 7 7 44 37 30 32 29 24 26 24 27 30 26 22 22 20 18 18
33 33 39 27 18 15 10 10 10 8 5 11 2 2 2 4 6 7 9 6 5 8 14 8 5 7 6 3 6 4 5 7 3 5 4 7 8 32 49 49 39 32 29 28 28 32 34 32 22 18 25 22 20 25
31 36 32 22 14 15 15 12 10 6 8 3 2 3 5 7 9 8 5 5 5 8 21 27 11 4 4 3 3 4 6 5 5 6 8 5 23 35 45 42 38 32 29 29 33 38 29 25 23 18 21 18 17 27
33 30 25 12 12 9 12 13 11 10 4 3 4 6 10 18 18 9 15 18 12 23 23 14 8 6 2 4 5 4 5 8 8 5 4 34 40 39 47 43 42 40 36 33 32 29 26 27 26 26 21 17 17 21
30 11 8 13 6 6 9 20 16 13 5 5 9 8 14 6 14 9 19 20 17 22 15 7 4 5 6 4 8 12 6 7 3 4 34 35 34 48 41 42 40 35 32 34 33 30 30 25 22 26 27 24 19 12
16 5 15 8 12 13 21 19 13 8 6 6 10 21 35 31 18 6 15 13 17 21 4 3 6 8 5 5 8 6 5 4 24 42 41 31 51 52 51 46 41 37 35 31 28 28 31 27 24 24 23 21 16 19
10 2 2 2 6 15 13 8 7 6 8 13 10 16 6 17 6 6 10 18 17 9 8 3 5 6 4 5 3 4 10 41 28 35 47 48 45 40 39 38 33 32 32 30 29 28 23 17 17 21 19 20 23 16
8 3 5 6 12 4 4 4 4 6 13 14 19 25 22 14 5 11 15 18 8 11 3 3 6 5 2 4 4 16 37 28 44 44 45 38 37 36 35 33 31 28 26 26 24 25 19 19 23 19 17 9 21 22
3 2 9 13 10 1 3 4 5 7 9 9 21 15 13 11 13 17 17 14 12 6 3 4 4 17 8 2 23 35 27 48 51 46 40 42 40 36 32 31 31 30 28 27 21 20 23 20 23 19 17 15 21 20
7 5 12 14 5 9 5 4 8 8 13 11 18 20 8 12 22 18 14 16 3 3 4 11 10 13 27 14 25 23 45 43 45 47 53 48 34 25 24 23 28 26 30 27 36 32 19 23 23 15 18 22 21 17
4 10 10 10 4 5 8 11 8 9 8 14 16 8 9 3 15 16 16 7 5 6 7 15 20 18 21 25 32 44 34 36 39 35 29 38 33 27 29 21 18 26 25 28 19 17 20 19 17 12 10 11 15 18
8 9 3 6 4 5 10 8 7 6 5 7 15 6 4 1 7 20 5 4 2 6 12 12 7 9 15 24 29 25 41 40 40 34 38 31 25 16 32 48 40 43 39 28 24 25 21 18 15 13 14 16 10 14
9 5 4 6 10 7 6 8 8 6 4 5 5 4 4 2 19 1 3 4 11 6 3 1 6 25 21 37 35 37 38 36 37 31 33 46 51 50 44 37 30 24 21 27 26 24 17 10 6 9 14 16 12 10
4 6 7 8 9 8 6 5 6 4 6 7 5 3 3 6 4 3 1 4 14 15 14 5 42 29 12 28 29 29 30 30 39 49 42 38 46 45 41 35 29 28 26 26 23 18 16 11 6 3 5 11 5 4
6 11 12 8 6 6 6 4 2 6 1 2 3 6 6 1 3 3 2 2 10 14 14 21 20 18 18 35 39 29 22 25 45 41 45 42 33 32 42 39 40 32 23 21 21 16 11 6 2 3 5 7 5 7
6 8 13 14 10 8 7 8 7 5 4 3 3 3 4 4 3 2 2 2 7 14 9 16 23 26 19 29 29 26 16 21 29 37 32 37 38 36 35 34 35 32 24 15 8 3 3 4 6 4 3 5 9 14
13 8 7 5 9 10 4 5 4 5 3 10 3 4 2 4 1 2 4 10 9 11 12 22 22 35 29 21 22 23 25 23 26 34 34 34 39 40 35 32 32 24 15 5 3 4 7 5 3 2 4 9 15 22
9 6 8 7 3 7 6 3 3 2 7 6 4 3 4 2 3 5 14 14 13 15 24 26 16 29 35 34 31 28 26 30 36 36 38 45 41 32 22 18 13 6 3 4 7 8 8 7 6 8 10 17 22 26
8 11 5 2 5 3 5 3 2 6 1 3 4 6 5 6 5 5 20 19 16 24 28 28 27 29 31 32 34 29 31 34 22 24 41 43 37 34 29 21 15 11 4 5 4 2 2 5 6 10 16 16 15 17
9 15 6 5 4 4 6 8 8 5 4 5 6 7 10 8 6 2 15 26 24 23 23 28 32 30 29 24 23 22 28 35 34 38 42 46 45 37 26 16 9 3 6 9 9 9 8 9 11 12 12 13 16 18
6 7 11 5 3 7 8 8 6 6 8 4 3 4 8 5 5 6 6 22 28 32 30 28 28 25 17 14 17 23 32 44 40 39 35 30 22 15 15 11 7 6 3 1 2 4 5 5 5 7 10 13 16 19
5 9 9 10 8 8 11 9 9 7 7 9 11 16 13 10 9 11 15 17 22 29 34 35 28 21 14 15 15 16 19 21 21 16 14 14 10 5 5 6 4 5 7 5 4 5 6 7 8 9 11 13 16 19
Wind_Direction_500mb
319 318 317 324 325 322 319 319 317 318 313 310 318 313 309 293 275 293 281 259 246 243 275 287 253 185 38 190 148 221 93 8 70 107 170 252 272 332 318 166 181 156 162 174 167 228 245 329 90 63 285 130 126 91
320 320 316 318 323 327 326 320 315 315 318 297 304 313 315 314 298 280 303 277 251 241 268 273 266 245 257 229 215 179 131 95 98 99 92 36 325 313 326 282 118 204 174 180 186 214 216 93 111 78 89 107 90 90
318 324 323 313 322 327 329 325 319 314 308 316 297 283 293 305 313 300 273 315 247 258 288 288 262 315 255 219 219 180 147 160 140 108 138 120 253 344 275 239 124 199 244 202 93 46 97 98 159 146 94 109 104 79
318 323 326 311 309 315 325 328 326 321 313 303 303 303 289 285 289 291 260 283 254 256 262 267 116 168 147 188 197 215 217 169 145 136 111 143 232 210 265 294 241 237 171 203 233 127 92 86 111 159 158 136 104 76
321 318 325 322 297 304 315 319 326 323 314 307 307 300 295 290 301 285 276 261 250 225 244 294 302 303 196 188 181 196 185 167 138 119 134 211 224 257 263 316 249 194 186 171 228 183 184 184 178 191 144 121 112 94
323 319 319 319 313 290 303 314 315 317 318 313 304 298 297 292 310 291 274 255 227 210 249 304 325 287 180 173 174 176 192 181 156 154 202 250 243 173 260 254 270 126 131 179 168 165 181 163 149 147 129 127 107 66
319 318 319 318 318 306 292 301 308 314 315 311 302 298 296 300 305 260 266 320 206 188 215 310 308 103 174 164 138 148 179 166 173 164 222 256 261 351 245 235 256 266 222 186 155 147 142 154 134 137 130 118 95 65
319 316 314 319 320 320 302 308 312 314 311 310 291 287 302 304 293 271 254 291 155 154 196 266 275 134 175 138 115 144 135 174 201 205 232 243 269 213 250 239 268 100 149 137 152 175 163 135 133 126 127 124 70 50
319 319 313 316 319 314 300 313 316 317 309 305 292 292 307 332 200 192 197 169 195 176 232 253 217 210 173 131 136 141 172 169 206 217 236 203 228 219 227 223 216 175 183 167 257 115 124 134 129 127 118 88 68 67
325 317 317 316 315 314 298 315 319 325 314 300 307 301 286 192 202 155 160 185 201 224 232 257 275 255 165 149 139 141 171 205 221 218 194 221 253 250 242 225 174 168 139 148 137 101 103 125 122 115 100 79 72 64
322 318 318 319 317 305 284 310 317 305 280 302 287 288 38 142 150 129 110 213 177 240 215 224 225 218 35 138 140 206 174 204 253 197 195 211 266 251 225 189 168 170 157 126 124 127 115 137 132 118 102 92 74 57
315 319 318 319 319 312 280 311 319 242 281 294 311 181 165 196 337 288 203 209 202 241 186 178 212 187 109 121 107 159 232 181 251 149 226 247 255 200 163 145 142 140 131 124 129 119 128 127 120 105 106 98 73 59
311 308 309 312 302 295 242 296 327 244 233 303 294 199 137 172 232 224 206 213 211 206 163 143 49 76 111 132 102 177 221 237 216 214 234 233 126 140 140 138 127 127 128 116 115 123 119 110 100 101 102 94 77 60
315 317 317 305 292 276 245 253 269 238 235 262 190 231 222 192 234 211 217 148 114 107 136 141 104 108 108 97 129 218 228 289 261 218 226 151 123 126 131 134 132 125 123 119 122 129 121 116 112 105 123 110 91 59
313 315 323 344 305 275 228 216 193 209 268 277 228 248 231 246 273 326 153 122 129 172 147 107 105 123 131 165 199 222 241 237 231 222 124 140 163 143 136 130 130 129 127 122 126 115 110 115 105 97 110 115 95 68
315 330 2 350 304 213 197 185 180 207 265 252 233 267 280 3 342 247 145 127 143 144 124 131 148 169 182 205 201 209 230 231 235 101 131 153 132 139 137 140 135 132 131 126 126 128 118 123 126 109 97 91 85 74
327 6 28 49 35 116 145 153 172 204 254 251 257 259 267 274 255 174 154 165 161 150 182 150 202 208 182 212 211 214 234 126 137 146 157 147 130 127 132 131 131 133 134 137 133 126 119 115 105 136 105 81 79 71
312 2 49 117 182 179 191 186 193 232 255 254 255 281 321 328 358 178 168 174 164 192 165 235 279 243 254 247 218 282 140 136 156 147 139 132 129 130 131 130 133 138 136 139 144 138 133 125 118 100 135 84 55 72
258 281 167 142 202 187 158 227 213 268 256 260 271 294 272 290 16 198 183 177 205 188 193 247 256 246 256 327 251 139 156 165 143 142 139 137 137 138 137 139 142 145 147 151 149 142 127 115 96 98 84 77 54 63
185 237 202 177 200 263 203 225 219 268 274 290 312 329 297 286 211 187 167 152 141 175 227 240 255 324 240 142 136 140 151 147 142 137 141 146 143 146 149 153 156 145 140 160 140 131 147 132 114 104 84 82 53 62
132 142 149 174 241 250 252 244 241 250 290 291 300 312 282 189 160 163 167 181 184 218 260 256 299 292 346 358 166 154 154 159 154 148 141 142 148 153 149 142 149 144 143 134 132 135 127 104 122 98 90 87 72 72
152 160 163 197 204 254 266 231 241 284 274 279 305 278 280 234 157 167 167 187 225 251 271 302 324 304 12 124 150 156 166 155 156 153 154 149 158 170 169 156 171 183 189 150 127 104 108 109 123 89 76 54 66 63
153 156 177 206 258 253 259 216 236 250 258 288 310 265 238 95 127 150 146 170 150 331 339 3 311 7 77 146 146 150 170 160 159 156 162 165 171 173 141 138 128 124 130 118 105 108 114 110 92 64 45 35 52 36
170 193 231 226 213 262 252 222 222 244 258 273 235 250 74 21 165 145 83 48 349 16 278 76 173 142 114 132 139 144 152 157 157 161 161 147 136 135 136 130 128 130 132 124 127 126 130 117 88 41 26 37 53 20
191 225 218 238 227 236 234 221 216 189 243 232 261 154 180 180 155 80 96 1 33 29 51 25 144 136 94 140 142 145 146 145 153 141 150 157 141 135 132 130 130 135 142 139 138 136 122 123 111 58 28 55 69 28
216 214 192 216 232 209 232 254 214 234 227 309 286 130 182 173 87 131 93 341 10 29 49 93 170 164 92 141 131 125 131 149 163 149 153 160 170 165 153 144 138 140 157 165 161 159 158 149 141 298 12 22 350 344
249 260 219 227 250 273 277 280 190 226 211 285 46 221 209 149 146 137 241 139 38 18 29 153 154 179 106 115 145 158 137 139 162 163 168 180 178 172 178 174 164 150 162 178 180 254 277 307 307 321 34 349 349 351
243 274 225 239 226 247 271 21 43 17 1 334 319 39 56 16 131 194 183 138 67 33 112 152 146 170 158 131 138 140 152 160 143 136 136 130 153 163 160 149 141 152 153 140 82 32 20 13 338 332 331 337 337 333
242 233 168 237 174 68 48 51 66 7 345 342 350 61 95 156 207 202 168 124 88 90 118 114 119 129 134 149 146 148 155 163 157 150 139 129 127 122 131 141 147 137 71 20 30 11 356 0 353 342 337 333 331 327
236 218 240 181 111 134 172 129 149 329 283 108 119 109 107 137 133 168 175 151 121 126 120 135 154 160 151 150 139 145 174 191 192 190 153 141 143 151 159 158 157 154 197 317 330 324 238 269 290 306 311 316 326 336
207 192 131 93 107 160 193 184 141 158 136 115 119 165 164 152 140 156 192 184 172 150 147 149 149 156 161 157 158 143 122 146 154 154 152 150 156 162 167 172 173 209 286 291 287 287 290 304 323 336 347 359 3 1
187 163 139 134 174 189 164 192 199 209 183 167 140 142 154 151 186 198 213 190 185 174 158 162 174 156 156 176 181 173 165 143 144 149 154 158 163 198 224 216 238 260 260 272 343 331 323 333 359 15 19 15 10 6
115 118 116 123 148 192 205 189 204 201 198 206 205 192 195 199 213 190 188 185 186 197 197 198 206 205 193 180 185 177 172 169 164 161 154 168 177 210 277 307 332 4 3 1 11 40 50 48 39 32 23 17 12 8
Wind_Speed_850mb
47 45 40 39 44 43 38 38 37 37 36 30 27 23 22 19 22 16 18 14 21 9 34 30 9 4 2 4 5 4 2 7 5 3 4 3 4 5 4 6 8 10 10 6 6 7 13 10 15 4 5 17 20 17
49 45 39 35 39 40 38 38 37 38 39 28 20 21 21 21 19 25 20 14 15 13 16 21 27 23 32 22 11 6 11 5 3 5 1 2 4 5 4 3 5 8 10 8 13 10 6 5 17 24 23 19 14 19
47 46 39 35 35 36 36 37 36 34 34 33 27 28 28 23 22 20 23 21 15 17 30 19 5 5 10 38 31 10 6 8 6 8 7 2 4 1 4 6 1 2 6 6 3 4 7 6 10 18 17 8 19 14
41 45 43 34 31 33 33 35 35 33 32 32 31 30 23 23 21 23 26 25 15 2 4 10 5 10 5 10 22 27 13 15 17 11 5 4 3 8 6 5 1 10 12 9 6 4 14 14 11 17 19 20 16 12
40 42 42 42 34 30 31 32 34 34 32 29 28 28 23 20 20 16 24 34 16 18 4 16 21 11 23 13 18 26 25 16 9 6 4 5 8 3 7 4 7 12 11 6 9 16 8 25 20 15 26 22 14 8
47 38 39 39 38 33 29 32 32 32 31 27 24 23 20 16 19 11 6 12 23 25 3 5 8 2 31 22 21 22 18 11 9 8 5 8 15 1 5 5 6 10 16 18 8 11 6 15 22 29 29 23 15 13
46 36 36 40 39 33 30 33 34 31 30 25 23 20 17 16 11 10 5 11 7 27 4 7 6 2 34 30 19 20 17 5 8 8 7 7 5 14 3 6 9 12 13 12 17 14 12 17 34 32 30 24 16 18
37 32 34 35 37 31 24 26 30 29 26 22 17 16 18 17 15 13 13 3 17 10 4 3 6 9 29 10 8 9 8 6 7 6 5 6 6 12 7 18 24 6 18 13 13 14 13 26 42 37 27 17 16 21
29 31 34 34 34 29 23 26 27 25 23 18 13 18 14 4 5 6 16 17 19 5 3 4 3 4 22 7 11 9 10 3 6 4 6 6 5 9 13 19 21 19 7 15 9 16 36 43 40 34 24 20 19 19
30 31 30 34 34 33 16 22 24 25 15 10 13 4 3 2 2 16 14 8 9 5 5 4 6 5 15 9 6 11 9 4 4 9 8 6 8 32 24 23 27 22 18 24 20 23 29 39 38 32 26 20 20 19
32 31 34 34 30 26 15 18 22 14 8 8 3 3 1 28 14 1 2 2 5 4 10 12 14 4 7 6 4 7 4 2 4 5 7 4 6 10 29 27 27 18 21 20 23 22 18 30 34 32 27 23 19 17
28 31 34 34 27 20 12 15 15 4 6 3 6 3 9 4 3 2 4 6 8 6 12 9 13 18 7 5 7 5 2 3 7 13 6 5 7 7 44 37 30 32 29 24 26 24 27 30 26 22 22 20 18 18
33 33 39 27 18 15 10 10 10 8 5 11 2 2 2 4 6 7 9 6 5 8 14 8 5 7 6 3 6 4 5 7 3 5 4 7 8 32 49 49 39 32 29 28 28 32 34 32 22 18 25 22 20 25
31 36 32 22 14 15 15 12 10 6 8 3 2 3 5 7 9 8 5 5 5 8 21 27 11 4 4 3 3 4 6 5 5 6 8 5 23 35 45 42 38 32 29 29 33 38 29 25 23 18 21 18 17 27
33 30 25 12 12 9 12 13 11 10 4 3 4 6 10 18 18 9 15 18 12 23 23 14 8 6 2 4 5 4 5 8 8 5 4 34 40 39 47 43 42 40 36 33 32 29 26 27 26 26 21 17 17 21
30 11 8 13 6 6 9 20 16 13 5 5 9 8 14 6 14 9 19 20 17 22 15 7 4 5 6 4 8 12 6 7 3 4 34 35 34 48 41 42 40 35 32 34 33 30 30 25 22 26 27 24 19 12
16 5 15 8 12 13 21 19 13 8 6 6 10 21 35 31 18 6 15 13 17 21 4 3 6 8 5 5 8 6 5 4 24 42 41 31 51 52 51 46 41 37 35 31 28 28 31 27 24 24 23 21 16 19
10 2 2 2 6 15 13 8 7 6 8 13 10 16 6 17 6 6 10 18 17 9 8 3 5 6 4 5 3 4 10 41 28 35 47 48 45 40 39 38 33 32 32 30 29 28 23 17 17 21 19 20 23 16
8 3 5 6 12 4 4 4 4 6 13 14 19 25 22 14 5 11 15 18 8 11 3 3 6 5 2 4 4 16 37 28 44 44 45 38 37 36 35 33 31 28 26 26 24 25 19 19 23 19 17 9 21 22
3 2 9 13 10 1 3 4 5 7 9 9 21 15 13 11 13 17 17 14 12 6 3 4 4 17 8 2 23 35 27 48 51 46 40 42 40 36 32 31 31 30 28 27 21 20 23 20 23 19 17 15 21 20
7 5 12 14 5 9 5 4 8 8 13 11 18 20 8 12 22 18 14 16 3 3 4 11 10 13 27 14 25 23 45 43 45 47 53 48 34 25 24 23 28 26 30 27 36 32 19 23 23 15 18 22 21 17
4 10 10 10 4 5 8 11 8 9 8 14 16 8 9 3 15 16 16 7 5 6 7 15 20 18 21 25 32 44 34 36 39 35 29 38 33 27 29 21 18 26 25 28 19 17 20 19 17 12 10 11 15 18
8 9 3 6 4 5 10 8 7 6 5 7 15 6 4 1 7 20 5 4 2 6 12 12 7 9 15 24 29 25 41 40 40 34 38 31 25 16 32 48 40 43 39 28 24 25 21 18 15 13 14 16 10 14
9 5 4 6 10 7 6 8 8 6 4 5 5 4 4 2 19 1 3 4 11 6 3 1 6 25 21 37 35 37 38 36 37 31 33 46 51 50 44 37 30 24 21 27 26 24 17 10 6 9 14 16 12 10
4 6 7 8 9 8 6 5 6 4 6 7 5 3 3 6 4 3 1 4 14 15 14 5 42 29 12 28 29 29 30 30 39 49 42 38 46 45 41 35 29 28 26 26 23 18 16 11 6 3 5 11 5 4
6 11 12 8 6 6 6 4 2 6 1 2 3 6 6 1 3 3 2 2 10 14 14 21 20 18 18 35 39 29 22 25 45 41 45 42 33 32 42 39 40 32 23 21 21 16 11 6 2 3 5 7 5 7
6 8 13 14 10 8 7 8 7 5 4 3 3 3 4 4 3 2 2 2 7 14 9 16 23 26 19 29 29 26 16 21 29 37 32 37 38 36 35 34 35 32 24 15 8 3 3 4 6 4 3 5 9 14
13 8 7 5 9 10 4 5 4 5 3 10 3 4 2 4 1 2 4 10 9 11 12 22 22 35 29 21 22 23 25 23 26 34 34 34 39 40 35 32 32 24 15 5 3 4 7 5 3 2 4 9 15 22
9 6 8 7 3 7 6 3 3 2 7 6 4 3 4 2 3 5 14 14 13 15 24 26 16 29 35 34 31 28 26 30 36 36 38 45 41 32 22 18 13 6 3 4 7 8 8 7 6 8 10 17 22 26
8 11 5 2 5 3 5 3 2 6 1 3 4 6 5 6 5 5 20 19 16 24 28 28 27 29 31 32 34 29 31 34 22 24 41 43 37 34 29 21 15 11 4 5 4 2 2 5 6 10 16 16 15 17
9 15 6 5 4 4 6 8 8 5 4 5 6 7 10 8 6 2 15 26 24 23 23 28 32 30 29 24 23 22 28 35 34 38 42 46 45 37 26 16 9 3 6 9 9 9 8 9 11 12 12 13 16 18
6 7 11 5 3 7 8 8 6 6 8 4 3 4 8 5 5 6 6 22 28 32 30 28 28 25 17 14 17 23 32 44 40 39 35 30 22 15 15 11 7 6 3 1 2 4 5 5 5 7 10 13 16 19
5 9 9 10 8 8 11 9 9 7 7 9 11 16 13 10 9 11 15 17 22 29 34 35 28 21 14 15 15 16 19 21 21 16 14 14 10 5 5 6 4 5 7 5 4 5 6 7 8 9 11 13 16 19
Wind_Direction_850mb
319 318 317 324 325 322 319 319 317 318 313 310 318 313 309 293 275 293 281 259 246 243 275 287 253 185 38 190 148 221 93 8 70 107 170 252 272 332 318 166 181 156 162 174 167 228 245 329 90 63 285 130 126 91
320 320 316 318 323 327 326 320 315 315 318 297 304 313 315 314 298 280 303 277 251 241 268 273 266 245 257 229 215 179 131 95 98 99 92 36 325 313 326 282 118 204 174 180 186 214 216 93 111 78 89 107 90 90
318 324 323 313 322 327 329 325 319 314 308 316 297 283 293 305 313 300 273 315 247 258 288 288 262 315 255 219 219 180 147 160 140 108 138 120 253 344 275 239 124 199 244 202 93 46 97 98 159 146 94 109 104 79
318 323 326 311 309 315 325 328 326 321 313 303 303 303 289 285 289 291 260 283 254 256 262 267 116 168 147 188 197 215 217 169 145 136 111 143 232 210 265 294 241 237 171 203 233 127 92 86 111 159 158 136 104 76
321 318 325 322 297 304 315 319 326 323 314 307 307 300 295 290 301 285 276 261 250 225 244 294 302 303 196 188 181 196 185 167 138 119 134 211 224 257 263 316 249 194 186 171 228 183 184 184 178 191 144 121 112 94
323 319 319 319 313 290 303 314 315 317 318 313 304 298 297 292 310 291 274 255 227 210 249 304 325 287 180 173 174 176 192 181 156 154 202 250 243 173 260 254 270 126 131 179 168 165 181 163 149 147 129 127 107 66
319 318 319 318 318 306 292 301 308 314 315 311 302 298 296 300 305 260 266 320 206 188 215 310 308 103 174 164 138 148 179 166 173 164 222 256 261 351 245 235 256 266 222 186 155 147 142 154 134 137 130 118 95 65
319 316 314 319 320 320 302 308 312 314 311 310 291 287 302 304 293 271 254 291 155 154 196 266 275 134 175 138 115 144 135 174 201 205 232 243 269 213 250 239 268 100 149 137 152 175 163 135 133 126 127 124 70 50
319 319 313 316 319 314 300 313 316 317 309 305 292 292 307 332 200 192 197 169 195 176 232 253 217 210 173 131 136 141 172 169 206 217 236 203 228 219 227 223 216 175 183 167 257 115 124 134 129 127 118 88 68 67
325 317 317 316 315 314 298 315 319 325 314 300 307 301 286 192 202 155 160 185 201 224 232 257 275 255 165 149 139 141 171 205 221 218 194 221 253 250 242 225 174 168 139 148 137 101 103 125 122 115 100 79 72 64
322 318 318 319 317 305 284 310 317 305 280 302 287 288 38 142 150 129 110 213 177 240 215 224 225 218 35 138 140 206 174 204 253 197 195 211 266 251 225 189 168 170 157 126 124 127 115 137 132 118 102 92 74 57
315 319 318 319 319 312 280 311 319 242 281 294 311 181 165 196 337 288 203 209 202 241 186 178 212 187 109 121 107 159 232 181 251 149 226 247 255 200 163 145 142 140 131 124 129 119 128 127 120 105 106 98 73 59
311 308 309 312 302 295 242 296 327 244 233 303 294 199 137 172 232 224 206 213 211 206 163 143 49 76 111 132 102 177 221 237 216 214 234 233 126 140 140 138 127 127 128 116 115 123 119 110 100 101 102 94 77 60
315 317 317 305 292 276 245 253 269 238 235 262 190 231 222 192 234 211 217 148 114 107 136 141 104 108 108 97 129 218 228 289 261 218 226 151 123 126 131 134 132 125 123 119 122 129 121 116 112 105 123 110 91 59
313 315 323 344 305 275 228 216 193 209 268 277 228 248 231 246 273 326 153 122 129 172 147 107 105 123 131 165 199 222 241 237 231 222 124 140 163 143 136 130 130 129 127 122 126 115 110 115 105 97 110 115 95 68
315 330 2 350 304 213 197 185 180 207 265 252 233 267 280 3 342 247 145 127 143 144 124 131 148 169 182 205 201 209 230 231 235 101 131 153 132 139 137 140 135 132 131 126 126 128 118 123 126 109 97 91 85 74
327 6 28 49 35 116 145 153 172 204 254 251 257 259 267 274 255 174 154 165 161 150 182 150 202 208 182 212 211 214 234 126 137 146 157 147 130 127 132 131 131 133 134 137 133 126 119 115 105 136 105 81 79 71
312 2 49 117 182 179 191 186 193 232 255 254 255 281 321 328 358 178 168 174 164 192 165 235 279 243 254 247 218 282 140 136 156 147 139 132 129 130 131 130 133 138 136 139 144 138 133 125 118 100 135 84 55 72
258 281 167 142 202 187 158 227 213 268 256 260 271 294 272 290 16 198 183 177 205 188 193 247 256 246 256 327 251 139 156 165 143 142 139 137 137 138 137 139 142 145 147 151 149 142 127 115 96 98 84 77 54 63
185 237 202 177 200 263 203 225 219 268 274 290 312 329 297 286 211 187 167 152 141 175 227 240 255 324 240 142 136 140 151 147 142 137 141 146 143 146 149 153 156 145 140 160 140 131 147 132 114 104 84 82 53 62
132 142 149 174 241 250 252 244 241 250 290 291 300 312 282 189 160 163 167 181 184 218 260 256 299 292 346 358 166 154 154 159 154 148 141 142 148 153 149 142 149 144 143 134 132 135 127 104 122 98 90 87 72 72
152 160 163 197 204 254 266 231 241 284 274 279 305 278 280 234 157 167 167 187 225 251 271 302 324 304 12 124 150 156 166 155 156 153 154 149 158 170 169 156 171 183 189 150 127 104 108 109 123 89 76 54 66 63
153 156 177 206 258 253 259 216 236 250 258 288 310 265 238 95 127 150 146 170 150 331 339 3 311 7 77 146 146 150 170 160 159 156 162 165 171 173 141 138 128 124 130 118 105 108 114 110 92 64 45 35 52 36
170 193 231 226 213 262 252 222 222 244 258 273 235 250 74 21 165 145 83 48 349 16 278 76 173 142 114 132 139 144 152 157 157 161 161 147 136 135 136 130 128 130 132 124 127 126 130 117 88 41 26 37 53 20
191 225 218 238 227 236 234 221 216 189 243 232 261 154 180 180 155 80 96 1 33 29 51 25 144 136 94 140 142 145 146 145 153 141 150 157 141 135 132 130 130 135 142 139 138 136 122 123 111 58 28 55 69 28
216 214 192 216 232 209 232 254 214 234 227 309 286 130 182 173 87 131 93 341 10 29 49 93 170 164 92 141 131 125 131 149 163 149 153 160 170 165 153 144 138 140 157 165 161 159 158 149 141 298 12 22 350 344
249 260 219 227 250 273 277 280 190 226 211 285 46 221 209 149 146 137 241 139 38 18 29 153 154 179 106 115 145 158 137 139 162 163 168 180 178 172 178 174 164 150 162 178 180 254 277 307 307 321 34 349 349 351
243 274 225 239 226 247 271 21 43 17 1 334 319 39 56 16 131 194 183 138 67 33 112 152 146 170 158 131 138 140 152 160 143 136 136 130 153 163 160 149 141 152 153 140 82 32 20 13 338 332 331 337 337 333
242 233 168 237 174 68 48 51 66 7 345 342 350 61 95 156 207 202 168 124 88 90 118 114 119 129 134 149 146 148 155 163 157 150 139 129 127 122 131 141 147 137 71 20 30 11 356 0 353 342 337 333 331 327
236 218 240 181 111 134 172 129 149 329 283 108 119 109 107 137 133 168 175 151 121 126 120 135 154 160 151 150 139 145 174 191 192 190 153 141 143 151 159 158 157 154 197 317 330 324 238 269 290 306 311 316 326 336
207 192 131 93 107 160 193 184 141 158 136 115 119 165 164 152 140 156 192 184 172 150 147 149 149 156 161 157 158 143 122 146 154 154 152 150 156 162 167 172 173 209 286 291 287 287 290 304 323 336 347 359 3 1
187 163 139 134 174 189 164 192 199 209 183 167 140 142 154 151 186 198 213 190 185 174 158 162 174 156 156 176 181 173 165 143 144 149 154 158 163 198 224 216 238 260 260 272 343 331 323 333 359 15 19 15 10 6
115 118 116 123 148 192 205 189 204 201 198 206 205 192 195 199 213 190 188 185 186 197 197 198 206 205 193 180 185 177 172 169 164 161 154 168 177 210 277 307 332 4 3 1 11 40 50 48 39 32 23 17 12 8